Flag Weather past 2 weeks in Eureka, Nunavut Territory, Canada

Now
-31 °F

Passing clouds.


Feels Like: -31 °F
Forecast: -31 / -19 °F
Wind: 2 mph from North

Location: Eureka

Current Time: Nov 27, 2014 at 2:10:34 PM

Latest Report: Nov 27, 2014 at 1:00 PM


Visibility: 15 mi

Pressure: 29.75 "Hg

Humidity: 67%

Dew point: -38 °F

Location of EurekaLocation

Historic Weather in Eureka — Graph

°F

Eureka temperature yesterday

Maximum temperature yesterday: -18 °F (at 12:00 AM)
Minimum temperature yesterday: -31 °F (at 2:00 PM)
Average temperature yesterday: -27 °F

Past Weeks' High & Low Weather Summary

 TemperatureHumidityPressure
High9 °F (Nov 13, 12:00 AM)100% (Nov 24, 3:00 AM)30.47 "Hg (Nov 24, 3:00 AM)
Low-31 °F (Nov 26, 2:00 PM)34% (Nov 13, 4:00 AM)29.27 "Hg (Nov 24, 9:00 PM)
Average-14 °F65%29.81 "Hg
* Reported Nov 12 1:00 PM — Nov 27 1:00 PM, Eureka, Weather by CustomWeather, © 2014

Note: Actual official high and low records may vary slightly from our data, if they occured in-between our weather recording intervals... More about our weather records

Advertising

Eureka weather history for previous 24 hours

 ConditionsComfort  
Time TempWeatherWind HumidityBarometerVisibility
1:00 PM
Nov 27
-31 °FPassing clouds.2 mph67%29.75 "Hg15 mi
12:00 PM-29 °FPassing clouds.2 mph54%29.74 "Hg15 mi
11:00 AM-29 °FPassing clouds.No wind67%29.73 "Hg15 mi
10:00 AM-31 °FPassing clouds.2 mph60%29.72 "Hg15 mi
9:00 AM-31 °FSunny.2 mph60%29.71 "Hg15 mi
8:00 AM-29 °FSunny.2 mph67%29.70 "Hg15 mi
7:00 AM-29 °FSunny.3 mph60%29.68 "Hg15 mi
6:00 AM-29 °FSunny.5 mph60%29.66 "Hg15 mi
5:00 AM-31 °FClear.6 mph60%29.65 "Hg15 mi
4:00 AM-29 °FClear.6 mph60%29.65 "Hg15 mi
3:00 AM-29 °FClear.7 mph67%29.64 "Hg15 mi
2:00 AM-29 °FPassing clouds.10 mph67%29.62 "Hg10 mi
1:00 AM-31 °FPassing clouds.12 mph67%29.59 "Hg15 mi
12:00 AM-31 °FPassing clouds.8 mph67%29.58 "Hg15 mi
11:00 PM
Nov 26
-29 °FPassing clouds.6 mph60%29.57 "Hg15 mi
10:00 PM-29 °FPassing clouds.2 mph60%29.56 "Hg10 mi
9:00 PM-29 °FPassing clouds.3 mph82%29.55 "Hg10 mi
8:00 PM-27 °FPassing clouds.5 mph67%29.54 "Hg8 mi
7:00 PM-31 °FPassing clouds.3 mph67%29.54 "Hg8 mi
6:00 PM-31 °FPassing clouds.9 mph67%29.54 "Hg12 mi
5:00 PM-31 °FPassing clouds.5 mph60%29.53 "Hg15 mi
4:00 PM-29 °FPassing clouds.5 mph67%29.53 "Hg15 mi
3:00 PM-31 °FPassing clouds.7 mph67%29.53 "Hg15 mi
2:00 PM-31 °FPassing clouds.3 mph67%29.54 "Hg15 mi
Weather by CustomWeather, © 2014

See weather overviewHow to use our weather pages